Location: Zagreb
(45.8000°N, 16.0000°E)
Time: 18:34:50
(UTC+02:00)

Tiros 1 despin weight - Pass Details

Date: 15 August 2022
Orbit: 591 x 638 km, 48.2° (Epoch: 06 October)

Event Time Altitude Azimuth Distance (km) Brightness Sun altitude
Rises 12:21:11 0° 240° (WSW) 2,866 ? 57.1°
Reaches altitude 10° 12:23:31 10° 238° (WSW) 1,955 ? 57.2°
Maximum altitude 12:27:58 68° 156° (SSE) 648 ? 57.4°
Drops below altitude 10° 12:32:22 10° 73° (ENE) 1,934 ? 57.6°
Sets 12:34:39 0° 71° (ENE) 2,832 ? 57.7°
